[[{"header":{"parameterUnit":"m.s-1","parameterCategory":1,"la1":30.2991,"la2":30.254,"lo1":-89.0895,"lo2":-89.0444,"dy":0.0017,"dx":0.0017,"nx":28,"ny":28,"refTime":"2023-11-08T09:00:00:Z","depth":0,"parameterNumber":2,"parameterNumberName":"U-component_of_WINDS"},"data":[0,0,0,0,0,0,0,0,0,0,0,0,0,0,0,0,0,0,0,0,0,0,0,0,0,0,0,0,0,0,0,0,0,0,0,0,0,0,0,0,0,0,0,0,0,0,0,0,0,0,0,0,0,0,0,0,0,0,-0.1554,-0.1555,0,-0.1606,-0.1607,-0.1607,-0.1654,-0.1655,-0.1655,-0.1656,-0.1706,-0.1707,-0.1708,0,0,0,0,0,0,0,0,0,0,0,0,0,-0.1494,-0.1495,-0.1554,-0.1555,-0.1556,-0.1606,-0.1607,-0.1608,-0.1654,-0.1655,-0.1656,-0.1656,-0.1706,-0.1707,-0.1708,0,0,0,0,0,0,0,0,0,0,0,0,0,-0.153,-0.1495,-0.1554,-0.1585,-0.1588,-0.1606,-0.1607,-0.1608,-0.1654,-0.1655,-0.1656,-0.1657,-0.1706,-0.1707,-0.1708,-0.1699,0,0,-0.1712,-0.1712,0,0,0,0,0,0,0,0,-0.1528,-0.1532,-0.158,-0.1583,-0.1587,-0.1625,-0.1604,-0.1638,-0.1654,-0.1629,-0.1656,-0.1657,-0.1678,-0.1682,-0.169,-0.1701,-0.1703,-0.1712,-0.1713,-0.1713,-0.1714,0,0,0,0,0,0,0,-0.1525,-0.153,-0.1575,-0.1581,-0.1585,-0.1596,-0.1602,-0.1611,-0.1648,-0.1631,-0.1635,-0.164,-0.168,-0.1688,-0.1691,-0.1704,-0.1712,-0.1713,-0.1714,-0.1714,-0.171,-0.1709,0,0,0,0,0,0,-0.1518,-0.1528,-0.1573,-0.1576,-0.1559,-0.1596,-0.1603,-0.1612,-0.1648,-0.1655,-0.164,-0.1642,-0.1686,-0.169,-0.1693,-0.1684,-0.1713,-0.1714,-0.1715,-0.171,-0.1709,-0.1708,0,0,0,0,0,0,-0.1517,-0.1522,-0.1571,-0.1553,-0.156,-0.1596,-0.1606,-0.1612,-0.162,-0.1655,-0.1661,-0.1641,-0.1687,-0.1691,-0.1697,-0.1686,-0.1715,-0.1716,-0.1711,-0.171,-0.1709,-0.1666,0,0,0,0,0,0,-0.1515,-0.1521,-0.1518,-0.1553,-0.1561,-0.1575,-0.1605,-0.1613,-0.1623,-0.1627,-0.1658,-0.1664,-0.1688,-0.1695,-0.1698,-0.1689,-0.1717,-0.1713,-0.1711,-0.1709,-0.1668,-0.1663,-0.1659,0,0,0,0,0,-0.1513,-0.1504,-0.1518,-0.1523,-0.1558,-0.1574,-0.1579,-0.1607,-0.1622,-0.1619,-0.1641,-0.1663,-0.1687,-0.1695,-0.1699,-0.169,-0.1713,-0.1711,-0.1709,-0.167,-0.1664,-0.1659,0,0,0,0,0,0,-0.1466,-0.1509,-0.1525,-0.1527,-0.1547,-0.1582,-0.1579,-0.16,-0.1615,-0.1618,-0.1652,-0.1659,-0.166,-0.1676,-0.1684,-0.1682,-0.1703,-0.1702,-0.1672,-0.1666,-0.1662,-0.1657,-0.1718,0,0,0,0,0,-0.1456,-0.1466,-0.1503,-0.1501,-0.151,-0.1543,-0.155,-0.1571,-0.1592,-0.16,-0.1623,-0.1642,-0.1654,-0.1661,-0.1674,-0.1671,-0.1678,-0.1667,-0.1662,-0.1658,-0.1656,-0.1655,-0.165,-0.1702,-0.1702,-0.1702,0,0,-0.1435,-0.146,-0.1464,-0.1492,-0.151,-0.1518,-0.1549,-0.1557,-0.1564,-0.1601,-0.1608,-0.1625,-0.1649,-0.165,-0.1651,-0.1663,-0.1643,-0.1655,-0.1652,-0.1652,-0.1652,-0.1647,-0.1643,-0.1701,-0.1701,-0.1701,0,0,-0.1402,-0.1422,-0.1423,-0.144,-0.1466,-0.1489,-0.1489,-0.1521,-0.1534,-0.1542,-0.157,-0.1578,-0.1598,-0.1614,-0.1624,-0.1597,-0.1618,-0.1601,-0.1575,-0.1574,-0.157,-0.1566,-0.1556,-0.1552,-0.1599,-0.1599,-0.1599,0,-0.1373,-0.1388,-0.142,-0.1426,-0.1437,-0.1473,-0.1474,-0.1489,-0.1517,-0.1524,-0.1537,-0.1563,-0.1581,-0.1586,-0.158,-0.1587,-0.1588,-0.1597,-0.1568,-0.1565,-0.1562,-0.1552,-0.1548,-0.1597,-0.1597,-0.1597,-0.1597,0,-0.135,-0.136,-0.1357,-0.1385,-0.1396,-0.1399,-0.1431,-0.1438,-0.1458,-0.1479,-0.1486,-0.1509,-0.1527,-0.153,-0.1549,-0.1538,-0.1544,-0.1562,-0.1583,-0.1554,-0.1546,-0.1542,-0.1593,-0.1594,-0.1595,-0.1595,0,0,-0.1288,-0.1334,-0.1332,-0.1346,-0.1378,-0.1386,-0.1391,-0.1409,-0.1415,-0.1434,-0.1438,-0.1454,-0.1471,-0.1483,-0.1504,-0.1503,-0.1479,-0.1521,-0.1522,-0.1512,-0.1467,-0.1453,-0.1448,-0.1493,-0.1493,-0.1492,-0.1465,0,-0.1259,-0.127,-0.13,-0.1302,-0.1311,-0.1345,-0.1349,-0.1369,-0.1388,-0.1398,-0.142,-0.1431,-0.1452,-0.146,-0.146,-0.1482,-0.147,-0.1484,-0.1496,-0.1496,-0.1489,-0.1444,-0.1429,-0.1401,-0.1462,-0.1461,-0.1461,0,-0.1227,-0.1244,-0.1247,-0.1279,-0.1284,-0.1287,-0.1307,-0.1317,-0.134,-0.1354,-0.1367,-0.1391,-0.1397,-0.1418,-0.1426,-0.1435,-0.1442,-0.1453,-0.1453,-0.1454,-0.1476,-0.1443,-0.1394,-0.1389,-0.1456,-0.1457,-0.1457,0,-0.118,-0.1205,-0.121,-0.122,-0.1257,-0.1259,-0.1274,-0.1298,-0.1308,-0.1325,-0.1331,-0.1348,-0.1357,-0.1369,-0.1397,-0.1409,-0.1402,-0.1425,-0.1412,-0.1412,-0.1408,-0.1408,-0.1358,-0.1414,-0.1414,-0.1414,-0.1414,0,-0.1144,-0.1145,-0.1189,-0.1192,-0.1193,-0.1227,-0.1227,-0.1246,-0.1267,-0.1273,-0.1304,-0.1309,-0.1346,-0.1355,-0.1376,-0.1379,-0.1383,-0.1394,-0.14,-0.1391,-0.1389,-0.1395,-0.1397,-0.1413,-0.1414,-0.1414,-0.1414,0,-0.1092,-0.1122,-0.113,-0.1165,-0.1174,-0.1173,-0.1203,-0.1206,-0.1228,-0.1236,-0.124,-0.1273,-0.1285,-0.1314,-0.1334,-0.1349,-0.1346,-0.1357,-0.1338,-0.1342,-0.1327,-0.1328,-0.1279,-0.1274,-0.1333,-0.1333,-0.1332,0,-0.1067,-0.1068,-0.1104,-0.1111,-0.1125,-0.1136,-0.1146,-0.1179,-0.1188,-0.1215,-0.1215,-0.123,-0.1244,-0.1262,-0.1288,-0.1303,-0.1314,-0.1295,-0.1316,-0.1307,-0.1312,-0.1311,-0.1311,-0.129,-0.1289,-0.1289,-0.1288,0,-0.1019,-0.1034,-0.1047,-0.1066,-0.1078,-0.1094,-0.1112,-0.1115,-0.1153,-0.1161,-0.1175,-0.1186,-0.1207,-0.1221,-0.124,-0.1255,-0.1277,-0.1282,-0.128,-0.127,-0.1259,-0.1264,-0.1325,-0.1282,-0.1283,-0.1283,-0.1284,-0.1284,-0.0979,-0.0981,-0.1007,-0.1021,-0.1038,-0.1054,-0.1059,-0.1082,-0.1094,-0.1114,-0.1133,-0.1145,-0.1167,-0.1196,-0.1209,-0.1218,-0.123,-0.1227,-0.1226,-0.1224,-0.122,-0.1259,-0.1222,-0.1222,-0.1222,-0.1223,-0.1223,0,-0.0931,-0.095,-0.0963,-0.0987,-0.0998,-0.102,-0.104,-0.1048,-0.1058,-0.1078,-0.1091,-0.1106,-0.1121,-0.1147,-0.1164,-0.1165,-0.1176,-0.1168,-0.1168,-0.1171,-0.1209,-0.1209,-0.116,-0.116,-0.116,-0.116,-0.116,-0.116,-0.0908,-0.0913,-0.0931,-0.0945,-0.0963,-0.0976,-0.0986,-0.1,-0.1016,-0.1032,-0.1045,-0.1062,-0.1085,-0.1103,-0.1116,-0.1124,-0.1128,-0.1117,-0.1127,-0.1162,-0.1168,-0.1174,-0.1174,-0.1118,-0.1118,-0.1088,-0.1088,-0.1088]},{"header":{"parameterUnit":"m.s-1","parameterCategory":1,"la1":30.2991,"la2":30.254,"lo1":-89.0895,"lo2":-89.0444,"dy":0.0017,"dx":0.0017,"nx":28,"ny":28,"refTime":"2023-11-08T09:00:00:Z","depth":0,"parameterNumber":3,"parameterNumberName":"V-component_of_WINDS"},"data":[0,0,0,0,0,0,0,0,0,0,0,0,0,0,0,0,0,0,0,0,0,0,0,0,0,0,0,0,0,0,0,0,0,0,0,0,0,0,0,0,0,0,0,0,0,0,0,0,0,0,0,0,0,0,0,0,0,0,3.0546,3.0546,0,3.0529,3.0529,3.0529,3.0486,3.0485,3.0484,3.0483,3.0464,3.0464,3.0465,0,0,0,0,0,0,0,0,0,0,0,0,0,3.054,3.054,3.0546,3.0546,3.0545,3.0529,3.0529,3.0529,3.0486,3.0485,3.0484,3.0482,3.0464,3.0464,3.0465,0,0,0,0,0,0,0,0,0,0,0,0,0,3.0535,3.054,3.0546,3.0522,3.052,3.0529,3.0529,3.0529,3.0486,3.0485,3.0483,3.0482,3.0464,3.0464,3.0465,3.0496,0,0,3.0466,3.0467,0,0,0,0,0,0,0,0,3.0535,3.0535,3.0526,3.0524,3.0521,3.0508,3.052,3.0518,3.0486,3.0499,3.0483,3.0481,3.048,3.0479,3.0479,3.0495,3.0494,3.0466,3.0467,3.0467,3.0467,0,0,0,0,0,0,0,3.0536,3.0536,3.0539,3.0526,3.0523,3.0512,3.051,3.0519,3.0497,3.0498,3.0494,3.0493,3.0478,3.0478,3.0478,3.0494,3.0466,3.0467,3.0467,3.0467,3.0537,3.0538,0,0,0,0,0,0,3.054,3.0536,3.054,3.0539,3.0525,3.0513,3.0511,3.0514,3.0497,3.0493,3.0494,3.0491,3.0478,3.0477,3.0477,3.0513,3.0467,3.0467,3.0468,3.0535,3.0537,3.0539,0,0,0,0,0,0,3.054,3.054,3.054,3.0537,3.0536,3.0515,3.0518,3.0514,3.0514,3.0494,3.049,3.0499,3.0477,3.0476,3.0492,3.0512,3.0468,3.0468,3.0533,3.0536,3.0538,3.0586,0,0,0,0,0,0,3.054,3.0541,3.0552,3.0537,3.0536,3.0556,3.052,3.0515,3.0515,3.0511,3.0497,3.0494,3.0476,3.0492,3.0493,3.0512,3.0469,3.0532,3.0535,3.0537,3.0582,3.0589,3.0595,0,0,0,0,0,3.054,3.0565,3.0553,3.0553,3.055,3.0557,3.0556,3.0536,3.0517,3.0529,3.0516,3.0494,3.051,3.0493,3.0494,3.0514,3.053,3.0534,3.0537,3.0579,3.0588,3.0595,0,0,0,0,0,0,3.0581,3.0562,3.0548,3.057,3.0566,3.055,3.0563,3.0545,3.0545,3.0541,3.0515,3.0513,3.0532,3.0525,3.0507,3.0545,3.0517,3.052,3.0548,3.0557,3.0563,3.0564,3.0469,0,0,0,0,0,3.0593,3.06,3.0584,3.0604,3.0603,3.0584,3.0586,3.0571,3.0565,3.0562,3.0551,3.0546,3.055,3.0553,3.0555,3.0581,3.0578,3.0596,3.0602,3.0608,3.0611,3.0626,3.0634,3.055,3.055,3.055,0,0,3.0616,3.0608,3.0613,3.0612,3.0607,3.0616,3.0582,3.0592,3.0598,3.0564,3.0578,3.057,3.0563,3.0585,3.0593,3.0579,3.0634,3.0612,3.0617,3.0617,3.0631,3.0639,3.0646,3.0552,3.0552,3.0552,0,0,3.0665,3.0658,3.0676,3.0672,3.0665,3.0653,3.0657,3.0645,3.0639,3.0653,3.0628,3.0635,3.0642,3.0639,3.0638,3.0688,3.0668,3.069,3.0724,3.0739,3.0746,3.0752,3.0771,3.0778,3.0693,3.0694,3.0694,0,3.0695,3.0707,3.0687,3.0699,3.07,3.0671,3.0689,3.0686,3.068,3.0681,3.0666,3.0676,3.0668,3.069,3.0703,3.0702,3.0707,3.0691,3.0747,3.0752,3.0757,3.0775,3.0782,3.0696,3.0696,3.0696,3.0695,0,3.0745,3.0754,3.0769,3.0766,3.0769,3.0784,3.0766,3.0771,3.0757,3.0747,3.0763,3.0754,3.0755,3.0759,3.0744,3.0779,3.0771,3.0751,3.0722,3.0768,3.0785,3.0791,3.07,3.0699,3.0698,3.0698,0,0,3.0816,3.0804,3.081,3.0809,3.0801,3.0808,3.0823,3.0825,3.083,3.0828,3.084,3.0849,3.0831,3.0831,3.0816,3.0829,3.0871,3.0808,3.0807,3.0821,3.0911,3.0925,3.0934,3.0859,3.086,3.0861,3.0912,0,3.0862,3.0887,3.087,3.0897,3.0907,3.0881,3.0894,3.0891,3.0882,3.0889,3.0879,3.0886,3.0862,3.0862,3.0874,3.0864,3.0889,3.086,3.087,3.087,3.0872,3.0942,3.0957,3.1005,3.0918,3.0919,3.092,0,3.0918,3.092,3.0949,3.0942,3.0945,3.0957,3.0959,3.0966,3.0962,3.0955,3.0957,3.0939,3.0953,3.0926,3.0946,3.0927,3.093,3.0926,3.0928,3.0928,3.0897,3.0944,3.102,3.1027,3.0929,3.0928,3.0928,0,3.0968,3.0978,3.0997,3.0997,3.0989,3.0999,3.0995,3.0991,3.0994,3.0996,3.0999,3.1002,3.1004,3.1007,3.0991,3.0973,3.1014,3.0985,3.1009,3.101,3.1018,3.1018,3.1096,3.1021,3.1021,3.102,3.102,0,3.1021,3.1039,3.102,3.1032,3.1053,3.1034,3.1055,3.105,3.1046,3.1057,3.1035,3.1045,3.1024,3.1032,3.102,3.104,3.104,3.1035,3.1032,3.1037,3.1038,3.1039,3.1035,3.1022,3.1022,3.1021,3.1021,0,3.1079,3.1067,3.1086,3.1078,3.1077,3.1092,3.1085,3.1096,3.1088,3.1101,3.1103,3.109,3.1099,3.1084,3.109,3.1082,3.111,3.1101,3.1111,3.1109,3.1134,3.1132,3.1215,3.1225,3.1143,3.1144,3.1145,0,3.1113,3.1127,3.1122,3.1128,3.1127,3.1136,3.1141,3.1124,3.1129,3.1129,3.114,3.1147,3.1152,3.1168,3.1159,3.1164,3.1156,3.1185,3.1156,3.1162,3.1157,3.1156,3.1158,3.119,3.1191,3.1192,3.1193,0,3.1175,3.117,3.1177,3.1183,3.1189,3.1193,3.1194,3.1201,3.1184,3.1191,3.1201,3.1205,3.1214,3.1222,3.1226,3.1222,3.1205,3.1202,3.1208,3.1213,3.1219,3.1217,3.1127,3.12,3.1199,3.1199,3.1198,3.1198,3.1223,3.1235,3.1234,3.1244,3.1244,3.1247,3.1258,3.1252,3.126,3.1266,3.1256,3.1269,3.1268,3.1271,3.1271,3.1281,3.1268,3.1276,3.1278,3.1281,3.1285,3.1218,3.1281,3.1281,3.1281,3.1281,3.1281,0,3.1285,3.1284,3.1293,3.1297,3.1305,3.129,3.1292,3.13,3.1312,3.1313,3.1319,3.1332,3.1341,3.1333,3.134,3.135,3.1343,3.1353,3.1351,3.1351,3.1296,3.129,3.1359,3.1359,3.1359,3.1359,3.1359,3.1359,3.1318,3.1338,3.1333,3.1354,3.1353,3.1367,3.1369,3.1373,3.1373,3.1389,3.1397,3.1392,3.139,3.1398,3.1405,3.1403,3.1407,3.142,3.1415,3.1363,3.1355,3.1348,3.1342,3.1421,3.1421,3.147,3.147,3.1471]}]]